LogID,LogEntryDate,LogEntryTime,LogEntrySeconds,01_LogMark,AFR,STFT,CurrentLTFT,IdleLTFT,CruiseLTFT,Load,O2Sensor2,IPW,AFRMAP,LoadTiming,TimingAdv,KnockSum,RPM,Baro,MAP,Boost,WGDC_Active,MAF,IDC,InVVTtarget,APP,ExVVTtarget,InVVTactual,ExVVTactual,TPS,IAT,WGDCCorr,Speed,Battery,ECT,MAT,MAPCalcs,IMAPCalcs,MAFCalcs,ChosenCalc,Custom
1,2024-06-17,04:49:43.94754,0.2373,0,0,-0.9765625,0.1953125,-12.5,0.1953125,15.625,,1.3,,15.625,26,0,4117.1875,104.5,23.9491512,-80.5508488,0,1.921584,4.46028645833333,10,,0,10,-0.3125,16.4705882352941,23,0,74,,84,35,17.1875,0,14.0625,15.625,
2,2024-06-17,04:49:44.02567,0.31307,0,18.5,-0.9765625,0.1953125,-12.5,0.1953125,15.625,,1.4,,15.625,33,0,4085.9375,104.5,23.9491512,-80.5508488,0,1.921584,4.76692708333333,10,,0,10,-0.3125,16.4705882352941,23,0,74,,84,35,15.625,0,14.0625,15.625,
3,2024-06-17,04:49:44.08821,0.37808,0,18.5,-0.9765625,0.1953125,-12.5,0.1953125,15.625,,1.4,,15.625,35,0,4093.75,104.5,23.9491512,-80.5508488,0,1.86276,4.77604166666667,10,,0,10,-0.3125,16.4705882352941,23,0,74,,84,35,17.1875,0,17.1875,14.0625,
4,2024-06-17,04:49:44.18192,0.47395,0,18.5,1.171875,0.1953125,-12.5,0.1953125,15.625,,1.3,,15.625,40,0,4062.5,104.5,23.9491512,-80.5508488,0,1.86276,4.40104166666667,10,,0,10,-0.3125,16.4705882352941,23,0,74,,84,35,17.1875,0,14.0625,14.0625,
5,2024-06-17,04:49:44.29129,0.57898,0,18.5,1.171875,0.1953125,-12.5,0.1953125,14.0625,,1.3,,14.0625,40,0,4070.3125,104.5,23.9491512,-80.5508488,0,1.843152,4.40950520833333,10,,0,10,-0.3125,16.4705882352941,23,0,74,,84,35,15.625,0,14.0625,14.0625,
6,2024-06-17,04:49:44.33821,0.63424,0,18.5,1.171875,0.1953125,-12.5,0.1953125,14.0625,,1.3,,14.0625,40,0,4039.0625,104.5,23.9491512,-80.5508488,0,1.843152,4.37565104166667,10,,0,10,-0.15625,16.4705882352941,23,0,74,,84,35,17.1875,0,14.0625,14.0625,
7,2024-06-17,04:49:44.44754,0.73501,0,15.7,-0.1953125,0.1953125,-12.5,0.1953125,14.0625,,1.3,,14.0625,40,0,4046.875,104.5,23.283897,-81.216103,0,1.843152,4.38411458333333,10,,0,10,-0.15625,16.4705882352941,23,0,74,,84,35,15.625,0,12.5,14.0625,
8,2024-06-17,04:49:44.49442,0.79234,0,15.7,-0.1953125,0.1953125,-12.5,0.1953125,14.0625,,1.3,,14.0625,40,0,4039.0625,104.5,23.283897,-81.216103,0,1.843152,4.37565104166667,10,,0,10,-0.3125,16.078431372549,23,0,74,,84,35,15.625,0,10.9375,12.5,
9,2024-06-17,04:49:44.61942,0.90794,0,11.9,-0.1953125,0.1953125,-12.5,0.1953125,12.5,,1.3,,12.5,40,0,4023.4375,104.5,21.9533886,-82.5466114,0,1.823544,4.35872395833333,10,,0,10,-0.3125,16.078431372549,23,0,72,,84,35,15.625,0,10.9375,12.5,
10,2024-06-17,04:49:44.69758,0.99447,0,11.1,0,-12.5,-12.5,0.1953125,12.5,,1.3,,12.5,40,0,4007.8125,104.5,21.9533886,-82.5466114,0,1.823544,4.341796875,10,,0,10,-0.3125,16.078431372549,23,0,72,,84,35,15.625,0,12.5,12.5,
11,2024-06-17,04:49:44.76006,1.04629,0,11.1,0,-12.5,-12.5,0.1953125,12.5,,1.3,,12.5,40,0,4007.8125,104.5,22.6186428,-81.8813572,0,1.843152,4.341796875,10,,0,10,-0.3125,15.6862745098039,23,0,72,,84,35,15.625,0,14.0625,12.5,
12,2024-06-17,04:49:44.79130,1.08909,0,11.1,0,-12.5,-12.5,0.1953125,12.5,,1.3,,12.5,40,0,4015.625,104.5,22.6186428,-81.8813572,0,1.843152,4.35026041666667,10,,0,10,-0.3125,15.6862745098039,23,0,72,,84,35,15.625,0,12.5,12.5,
13,2024-06-17,04:49:44.91633,1.21276,0,11,0,-12.5,-12.5,0.1953125,12.5,,1.3,,12.5,40,0,4000,104.5,21.9533886,-82.5466114,0,1.823544,4.33333333333333,10,,0,10,-0.3125,15.6862745098039,23,0,72,,84,35,15.625,0,14.0625,12.5,
14,2024-06-17,04:49:44.99442,1.29165,0,11,0,-12.5,-12.5,0.1953125,14.0625,,1.3,,14.0625,40,0,3992.1875,104.5,21.9533886,-82.5466114,0,1.823544,4.32486979166667,10,,0,10,-0.3125,16.078431372549,23,0,72,,84,35,15.625,0,10.9375,12.5,
15,2024-06-17,04:49:45.08819,1.38517,0,11,0,-12.5,-12.5,0.1953125,12.5,,1.3,,12.5,40,0,3992.1875,104.5,22.6186428,-81.8813572,0,1.784328,4.32486979166667,10,,0,10,-0.3125,16.078431372549,23,0,70,,84,35,15.625,0,12.5,12.5,
16,2024-06-17,04:49:45.16632,1.45264,0,10.8,0,-12.5,-12.5,0.1953125,12.5,,1.3,,12.5,40,0,3984.375,104.5,22.6186428,-81.8813572,0,1.784328,4.31640625,10,,0,10,-0.15625,16.078431372549,23,0,70,,84,35,15.625,0,12.5,12.5,
17,2024-06-17,04:49:45.24442,1.53834,0,10.8,0,-12.5,-12.5,0.1953125,12.5,,1.3,,12.5,40,0,3976.5625,105,22.6186428,-82.3813572,0,1.823544,4.30794270833333,10,,0,10,-0.15625,16.078431372549,23,0,70,,84,35,15.625,0,14.0625,12.5,
18,2024-06-17,04:49:45.30697,1.60288,0,10.7,0,-12.5,-12.5,0.1953125,12.5,,1.3,,12.5,40,0,3984.375,105,22.6186428,-82.3813572,0,1.823544,4.31640625,10,,0,10,-0.3125,16.078431372549,23,0,70,,84,36,15.625,0,12.5,12.5,
19,2024-06-17,04:49:45.41632,1.70146,0,10.7,0,-12.5,-12.5,0.1953125,14.0625,,1.3,,12.5,40,0,3968.75,104.5,22.6186428,-81.8813572,0,1.843152,4.29947916666667,10,,0,10,-0.3125,16.078431372549,23,0,70,,84,36,15.625,0,15.625,14.0625,
20,2024-06-17,04:49:45.49442,1.78193,0,10.6,0,-12.5,-12.5,0.1953125,14.0625,,1.3,,14.0625,40,0,3960.9375,104.5,22.6186428,-81.8813572,0,1.843152,4.291015625,10,,0,10.15625,-0.15625,16.078431372549,23,0,70,,84,36,15.625,0,12.5,14.0625,
21,2024-06-17,04:49:45.57259,1.86663,0,10.6,0,-12.5,-12.5,0.1953125,14.0625,,1.3,,14.0625,40,0,3937.5,105,23.283897,-81.716103,0,1.76472,4.265625,10,,0,10.15625,-0.15625,16.078431372549,23,0,70,,84,36,15.625,0,14.0625,14.0625,
22,2024-06-17,04:49:45.63506,1.92425,0,10.8,0,-12.5,-12.5,0.1953125,14.0625,,1.3,,14.0625,40,0,3929.6875,105,23.283897,-81.716103,0,1.76472,4.25716145833333,10,,0,10.15625,-0.15625,16.078431372549,23,0,70,,84,36,15.625,0,14.0625,14.0625,
23,2024-06-17,04:49:45.69754,1.98816,0,10.8,0,-12.5,-12.5,0.1953125,14.0625,,1.3,,14.0625,40,0,3929.6875,104.5,23.283897,-81.216103,0,1.803936,4.25716145833333,10,,0,10.15625,-0.15625,16.078431372549,23,0,70,,84,36,15.625,0,15.625,14.0625,
24,2024-06-17,04:49:45.72879,2.01421,0,10.8,0,-12.5,-12.5,0.1953125,14.0625,,1.3,,14.0625,40,0,3929.6875,104.5,23.283897,-81.216103,0,1.803936,4.25716145833333,10,,0,10,-0.15625,16.078431372549,23,0,70,,84,36,15.625,0,14.0625,14.0625,
25,2024-06-17,04:49:45.76005,2.05229,0,10.8,0,-12.5,-12.5,0.1953125,14.0625,,1.3,,14.0625,40,0,3929.6875,104.5,23.283897,-81.216103,0,1.843152,4.25716145833333,10,,0,10,-0.15625,16.078431372549,23,0,70,,84,36,15.625,0,14.0625,14.0625,
26,2024-06-17,04:49:45.80694,2.10396,0,10.8,0,-12.5,-12.5,0.1953125,14.0625,,1.3,,14.0625,40,0,3906.25,104.5,23.283897,-81.216103,0,1.843152,4.23177083333333,10,,0,10.15625,0,16.078431372549,23,0,70,,84,36,15.625,0,14.0625,14.0625,
27,2024-06-17,04:49:45.88504,2.17005,0,10.8,0,-12.5,-12.5,0.1953125,14.0625,,1.3,,14.0625,40,0,3914.0625,104.5,23.283897,-81.216103,0,1.803936,4.240234375,10,,0,10.15625,0,16.078431372549,23,0,70,,84,36,15.625,0,12.5,14.0625,
28,2024-06-17,04:49:45.93193,2.22371,0,10.8,0,-12.5,-12.5,0.1953125,14.0625,,1.3,,14.0625,40,0,3890.625,104.5,23.283897,-81.216103,0,1.803936,4.21484375,10,,0,10.15625,-0.15625,16.078431372549,23,0,70,,84,36,15.625,0,12.5,14.0625,
29,2024-06-17,04:49:45.99442,2.29108,0,10.8,0,-12.5,-12.5,0.1953125,14.0625,,1.3,,14.0625,40,0,3875,104.5,23.283897,-81.216103,0,1.843152,4.19791666666667,10,,0,10.15625,-0.15625,16.078431372549,23,0,70,,84,36,15.625,0,12.5,14.0625,
30,2024-06-17,04:49:46.05692,2.34744,0,10.8,0,-12.5,-12.5,0.1953125,14.0625,,1.3,,14.0625,40,0,3882.8125,104.5,23.283897,-81.216103,0,1.843152,4.20638020833333,10,,0,10.15625,0,16.078431372549,23,0,70,,84,36,15.625,0,14.0625,12.5,
31,2024-06-17,04:49:46.16629,2.45159,0,10.7,0,-12.5,-12.5,0.1953125,12.5,,1.3,,12.5,40,0,3843.75,104.5,23.283897,-81.216103,0,1.76472,4.1640625,10,,0,10.15625,0,16.078431372549,23,0,70,,84,36,15.625,0,12.5,12.5,
32,2024-06-17,04:49:46.21316,2.49914,0,10.7,0,-12.5,-12.5,0.1953125,12.5,,1.3,,12.5,40,0,3859.375,104.5,23.283897,-81.216103,0,1.76472,4.18098958333333,10,,0,10.15625,0,15.6862745098039,23,0,70,,84,36,15.625,0,12.5,12.5,
33,2024-06-17,04:49:46.27567,2.56128,0,10.7,0,-12.5,-12.5,0.1953125,12.5,,1.3,,12.5,40,0,3843.75,104.5,23.283897,-81.216103,0,1.843152,4.1640625,10,,0,10.15625,0,15.6862745098039,23,0,70,,84,36,15.625,0,14.0625,14.0625,
34,2024-06-17,04:49:46.33817,2.6316,0,10.7,0,-12.5,-12.5,0.1953125,14.0625,,1.3,,12.5,40,0,3859.375,104.5,23.283897,-81.216103,0,1.843152,4.18098958333333,10,,0,10.15625,-0.15625,15.6862745098039,23,0,70,,84,36,15.625,0,14.0625,14.0625,
35,2024-06-17,04:49:46.41629,2.70651,0,10.7,0,-12.5,-12.5,0.1953125,14.0625,,1.3,,14.0625,40,0,3835.9375,104.5,23.283897,-81.216103,0,1.823544,4.15559895833333,10,,0,10.15625,-0.15625,16.078431372549,23,0,70,,84,36,15.625,0,14.0625,14.0625,
36,2024-06-17,04:49:46.46317,2.76184,0,10.7,0,-12.5,-12.5,0.1953125,14.0625,,1.3,,14.0625,40,0,3828.125,104.5,23.283897,-81.216103,0,1.823544,4.14713541666667,10,,0,10,0,16.078431372549,23,0,70,,84,36,15.625,0,15.625,14.0625,
37,2024-06-17,04:49:46.52570,2.8183,0,10.6,0,-12.5,-12.5,0.1953125,14.0625,,1.3,,14.0625,40,0,3812.5,104.5,23.283897,-81.216103,0,1.823544,4.13020833333333,10,,0,10,0,16.078431372549,23,0,70,,84,36,15.625,0,14.0625,14.0625,
38,2024-06-17,04:49:46.58822,2.88594,0,10.6,0,-12.5,-12.5,0.1953125,14.0625,,1.3,,14.0625,40,0,3804.6875,104.5,23.283897,-81.216103,0,1.823544,4.12174479166667,10,,0,10.15625,-0.15625,16.078431372549,23,0,70,,84,36,15.625,0,14.0625,14.0625,
39,2024-06-17,04:49:46.65067,2.94267,0,10.6,0,-12.5,-12.5,0.1953125,14.0625,,1.3,,14.0625,40,0,3796.875,104.5,23.283897,-81.216103,0,1.823544,4.11328125,10,,0,10.15625,-0.15625,16.078431372549,23,0,68,,84,36,15.625,0,14.0625,14.0625,
40,2024-06-17,04:49:46.72879,3.01603,0,10.7,0,-12.5,-12.5,0.1953125,14.0625,,1.3,,14.0625,40,0,3789.0625,104.5,23.283897,-81.216103,0,1.823544,4.10481770833333,10,,0,10.15625,0,16.078431372549,23,0,68,,84,36,15.625,0,14.0625,14.0625,
41,2024-06-17,04:49:46.80692,3.10307,0,10.7,0,-12.5,-12.5,0.1953125,14.0625,,1.3,,14.0625,40,0,3804.6875,104.5,23.283897,-81.216103,0,1.76472,4.12174479166667,10,,0,10.15625,0,16.078431372549,23,0,68,,84,36,15.625,0,12.5,14.0625,
42,2024-06-17,04:49:46.88505,3.17878,0,10.6,0,-12.5,-12.5,0.1953125,14.0625,,1.3,,14.0625,40,0,3773.4375,104.5,23.283897,-81.216103,0,1.76472,4.087890625,10,,0,10,0,16.078431372549,23,0,68,,84,36,15.625,0,12.5,14.0625,
43,2024-06-17,04:49:46.94756,3.24405,0,10.6,0,-12.5,-12.5,0.1953125,14.0625,,1.3,,14.0625,40,0,3773.4375,105,23.283897,-81.716103,0,1.843152,4.087890625,10,,0,10,0,16.078431372549,23,0,68,,84,36,15.625,0,12.5,12.5,
44,2024-06-17,04:49:46.99443,3.29284,0,10.6,0,-12.5,-12.5,0.1953125,14.0625,,1.3,,14.0625,40,0,3765.625,105,23.283897,-81.716103,0,1.843152,4.07942708333333,10,,0,10,0,15.6862745098039,23,0,68,,84,36,15.625,0,10.9375,12.5,
45,2024-06-17,04:49:47.13504,3.42052,0,10.6,0,-12.5,-12.5,0.1953125,12.5,,1.3,,12.5,40,0,3750,104.5,23.283897,-81.216103,0,1.803936,4.0625,10,,0,10,0,15.6862745098039,23,0,68,,84,36,15.625,0,12.5,12.5,
46,2024-06-17,04:49:47.21316,3.50186,0,10.5,0,-12.5,-12.5,0.1953125,12.5,,1.3,,12.5,40,0,3757.8125,104.5,23.283897,-81.216103,0,1.803936,4.07096354166667,10,,0,10.15625,0,15.6862745098039,23,0,68,,84,36,15.625,0,14.0625,12.5,
47,2024-06-17,04:49:47.26004,3.55183,0,10.5,0,-12.5,-12.5,0.1953125,12.5,,1.3,,12.5,40,0,3742.1875,104.5,23.283897,-81.216103,0,1.803936,4.05403645833333,10,,0,10.15625,0,15.6862745098039,23,0,68,,84,36,15.625,0,12.5,12.5,
48,2024-06-17,04:49:47.29129,3.58391,0,10.5,0,-12.5,-12.5,0.1953125,12.5,,1.3,,12.5,40,0,3742.1875,104.5,23.283897,-81.216103,0,1.803936,4.05403645833333,10,,0,10,0,15.6862745098039,23,0,66,,84,36,15.625,0,14.0625,12.5,
49,2024-06-17,04:49:47.36947,3.66808,0,10.5,0,-12.5,-12.5,0.1953125,14.0625,,1.3,,14.0625,40,0,3718.75,104.5,23.283897,-81.216103,0,1.784328,4.02864583333333,10,,0,10,0,15.6862745098039,23,0,66,,84,36,15.625,0,12.5,14.0625,
50,2024-06-17,04:49:47.43198,3.72736,0,10.5,0,-12.5,-12.5,0.1953125,14.0625,,1.3,,14.0625,40,0,3710.9375,104.5,23.283897,-81.216103,0,1.784328,4.02018229166667,10,,0,10,0.15625,15.6862745098039,23,0,66,,84,36,15.625,0,12.5,12.5,
51,2024-06-17,04:49:47.52569,3.81751,0,10.4,0,-12.5,-12.5,0.1953125,12.5,,1.3,,12.5,40,0,3710.9375,104.5,22.6186428,-81.8813572,0,1.784328,4.02018229166667,10,,0,10,0.15625,15.6862745098039,23,0,66,,84,36,14.0625,0,14.0625,12.5,
52,2024-06-17,04:49:47.57255,3.87118,0,10.4,0,-12.5,-12.5,0.1953125,12.5,,1.3,,12.5,40,0,3695.3125,104.5,22.6186428,-81.8813572,0,1.784328,4.00325520833333,10,,0,10,0,15.6862745098039,23,0,66,,84,36,14.0625,0,10.9375,12.5,
53,2024-06-17,04:49:47.60379,3.90174,0,10.5,0,-12.5,-12.5,0.1953125,12.5,,1.3,,12.5,40,0,3695.3125,104.5,22.6186428,-81.8813572,0,1.784328,4.00325520833333,10,,0,10,0,15.6862745098039,23,0,66,,84,36,14.0625,0,14.0625,12.5,
54,2024-06-17,04:49:47.63504,3.92112,0,10.5,0,-12.5,-12.5,0.1953125,12.5,,1.3,,12.5,40,0,3695.3125,104.5,22.6186428,-81.8813572,0,1.784328,4.00325520833333,10,,0,10,0,15.6862745098039,23,0,66,,84,36,14.0625,0,12.5,12.5,
55,2024-06-17,04:49:47.69754,3.98684,0,10.5,0,-12.5,-12.5,0.1953125,12.5,,1.3,,12.5,40,0,3695.3125,105,23.283897,-81.716103,0,1.784328,4.00325520833333,10,,0,10,0,15.6862745098039,23,0,66,,84,36,15.625,0,12.5,12.5,
56,2024-06-17,04:49:47.74441,4.0303,0,10.5,0,-12.5,-12.5,0.1953125,12.5,,1.3,,12.5,40,0,3703.125,105,23.283897,-81.716103,0,1.784328,4.01171875,10,,0,10,0,15.6862745098039,23,0,66,,84,36,14.0625,0,12.5,12.5,
57,2024-06-17,04:49:47.83817,4.12306,0,10.4,0,-12.5,-12.5,0.1953125,12.5,,1.3,,12.5,40,0,3679.6875,104.5,22.6186428,-81.8813572,0,1.725504,3.986328125,10,,0,10,0,15.6862745098039,23,0,66,,84,36,15.625,0,12.5,12.5,
58,2024-06-17,04:49:47.86945,4.16754,0,10.4,0,-12.5,-12.5,0.1953125,12.5,,1.3,,12.5,40,0,3671.875,104.5,22.6186428,-81.8813572,0,1.725504,3.97786458333333,10,,0,10,0,15.6862745098039,23,0,66,,84,36,14.0625,0,12.5,12.5,
59,2024-06-17,04:49:47.91630,4.21317,0,10.6,0,-12.5,-12.5,0.1953125,12.5,,1.3,,12.5,40,0,3671.875,104.5,22.6186428,-81.8813572,0,1.823544,3.97786458333333,10,,0,10,0,15.6862745098039,23,0,66,,84,36,15.625,0,12.5,12.5,
60,2024-06-17,04:49:48.01004,4.29467,0,10.6,0,-12.5,-12.5,0.1953125,14.0625,,1.3,,14.0625,40,0,3664.0625,104.5,22.6186428,-81.8813572,0,1.823544,3.96940104166667,10,,0,10,0.15625,15.6862745098039,23,0,64,,84,36,14.0625,0,12.5,12.5,
61,2024-06-17,04:49:48.07259,4.37038,0,10.6,0,-12.5,-12.5,0.1953125,14.0625,,1.3,,14.0625,40,0,3640.625,104.5,23.283897,-81.216103,0,1.76472,3.94401041666667,10,,0,10,0.15625,15.6862745098039,23,0,64,,84,36,14.0625,0,14.0625,12.5,
62,2024-06-17,04:49:48.15069,4.45033,0,10.6,0,-12.5,-12.5,0.1953125,12.5,,1.3,,12.5,40,0,3625,104.5,23.283897,-81.216103,0,1.76472,3.92708333333333,10,,0,9.84375,0,15.6862745098039,23,0,64,,84,36,14.0625,0,12.5,12.5,
63,2024-06-17,04:49:48.21319,4.50855,0,10.6,0,-12.5,-12.5,0.1953125,12.5,,1.3,,12.5,40,0,3617.1875,104.5,23.283897,-81.216103,0,1.725504,3.91861979166667,10,,0,9.84375,0,15.6862745098039,23,0,64,,84,36,14.0625,0,12.5,12.5,
64,2024-06-17,04:49:48.26004,4.55312,0,10.6,0,-12.5,-12.5,0.1953125,12.5,,1.3,,12.5,40,0,3625,104.5,23.283897,-81.216103,0,1.725504,3.92708333333333,10,,0,9.84375,0,15.6862745098039,23,0,64,,84,36,14.0625,0,10.9375,12.5,
65,2024-06-17,04:49:48.33822,4.63211,0,10.6,0,-12.5,-12.5,0.1953125,12.5,,1.3,,12.5,40,0,3609.375,104.5,22.6186428,-81.8813572,0,1.745112,3.91015625,10,,0,9.84375,0,15.2941176470588,23,0,64,,84,36,14.0625,0,14.0625,12.5,
66,2024-06-17,04:49:48.38504,4.67864,0,10.6,0,-12.5,-12.5,0.1953125,12.5,,1.3,,12.5,40,0,3585.9375,104.5,22.6186428,-81.8813572,0,1.745112,3.884765625,10,,0,9.84375,0,15.2941176470588,23,0,64,,84,36,14.0625,0,14.0625,12.5,
67,2024-06-17,04:49:48.41635,4.71596,0,10.6,0,-12.5,-12.5,0.1953125,12.5,,1.3,,12.5,40,0,3585.9375,104.5,22.6186428,-81.8813572,0,1.725504,3.884765625,10,,0,9.84375,0,15.2941176470588,23,0,64,,84,36,15.625,0,14.0625,12.5,
68,2024-06-17,04:49:48.47879,4.77325,0,10.6,0,-12.5,-12.5,0.1953125,12.5,,1.3,,14.0625,40,0,3578.125,104.5,22.6186428,-81.8813572,0,1.725504,3.87630208333333,10,,0,9.84375,0,15.6862745098039,23,0,64,,84,36,15.625,0,12.5,12.5,
69,2024-06-17,04:49:48.57254,4.86704,0,10.6,0,-12.5,-12.5,0.1953125,12.5,,1.3,,12.5,40,0,3562.5,104.5,23.9491512,-80.5508488,0,1.803936,3.859375,10,,0,9.84375,0,15.6862745098039,23,0,64,,84,36,15.625,0,12.5,12.5,
70,2024-06-17,04:49:48.63506,4.92565,0,10.5,0,-12.5,-12.5,0.1953125,12.5,,1.3,,12.5,40,0,3554.6875,104.5,23.9491512,-80.5508488,0,1.803936,3.85091145833333,10,,0,9.84375,-0.15625,15.6862745098039,23,0,64,,84,36,14.0625,0,12.5,12.5,
71,2024-06-17,04:49:48.71316,5.00281,0,10.5,0,-12.5,-12.5,0.1953125,12.5,,1.3,,12.5,40,0,3539.0625,104.5,23.283897,-81.216103,0,1.705896,3.833984375,10,,0,9.84375,-0.15625,15.2941176470588,23,0,64,,84,36,15.625,0,12.5,12.5,
72,2024-06-17,04:49:48.74442,5.03983,0,10.6,0,-12.5,-12.5,0.1953125,12.5,,1.3,,12.5,40,0,3539.0625,104.5,23.283897,-81.216103,0,1.705896,3.833984375,10,,0,9.6875,0.15625,15.2941176470588,23,0,62,,84,36,15.625,0,12.5,12.5,
73,2024-06-17,04:49:48.82254,5.10844,0,10.6,0,-12.5,-12.5,0.1953125,12.5,,1.3,,12.5,40,0,3531.25,104.5,23.283897,-81.216103,0,1.784328,3.82552083333333,10,,0,9.6875,0.15625,15.2941176470588,23,0,62,,84,36,15.625,0,12.5,12.5,
74,2024-06-17,04:49:48.88504,5.17608,0,10.6,0,-12.5,-12.5,0.1953125,14.0625,,1.3,,12.5,40,0,3523.4375,104.5,23.283897,-81.216103,0,1.784328,3.81705729166667,10,,0,9.84375,0.15625,15.2941176470588,23,0,62,,84,36,15.625,0,12.5,12.5,
75,2024-06-17,04:49:48.97879,5.27239,0,10.7,0,-12.5,-12.5,0.1953125,12.5,,1.3,,12.5,40,0,3507.8125,104.5,23.283897,-81.216103,0,1.725504,3.80013020833333,10,,0,9.84375,0.15625,15.2941176470588,23,0,62,,84,36,14.0625,0,12.5,12.5,
76,2024-06-17,04:49:49.01004,5.29564,0,10.7,0,-12.5,-12.5,0.1953125,12.5,,1.3,,12.5,40,0,3507.8125,104.5,23.283897,-81.216103,0,1.725504,3.80013020833333,10,,0,9.84375,0.15625,15.2941176470588,23,0,62,,84,36,14.0625,0,12.5,12.5,
77,2024-06-17,04:49:49.07259,5.37168,0,10.7,0,-12.5,-12.5,0.1953125,12.5,,1.3,,12.5,40,0,3500,104.5,23.283897,-81.216103,0,1.745112,3.79166666666667,10,,0,9.84375,0.15625,15.2941176470588,23,0,62,,84,36,14.0625,0,12.5,12.5,
78,2024-06-17,04:49:49.18192,5.4761,0,10.7,0,-12.5,-12.5,0.1953125,12.5,,1.3,,12.5,40,0,3492.1875,104.5,23.283897,-81.216103,0,1.745112,3.783203125,10,,0,9.6875,0.15625,15.2941176470588,23,0,62,,84,36,14.0625,0,12.5,12.5,
79,2024-06-17,04:49:49.27567,5.5659,0,10.8,0,-12.5,-12.5,0.1953125,12.5,,1.3,,12.5,40,0,3484.375,104.5,23.283897,-81.216103,0,1.76472,3.77473958333333,10,,0,9.6875,0.15625,15.2941176470588,23,0,62,,84,36,14.0625,0,9.375,12.5,
80,2024-06-17,04:49:49.33817,5.62481,0,10.8,0,-12.5,-12.5,0.1953125,12.5,,1.3,,12.5,40,0,3476.5625,104.5,23.283897,-81.216103,0,1.76472,3.76627604166667,10,,0,9.84375,0.15625,15.2941176470588,23,0,62,,84,36,14.0625,0,12.5,12.5,
81,2024-06-17,04:49:49.40066,5.69477,0,10.5,0,-12.5,-12.5,0.1953125,12.5,,1.3,,12.5,40,0,3468.75,104.5,23.283897,-81.216103,0,1.745112,3.7578125,10,,0,9.84375,0.15625,15.2941176470588,23,0,62,,84,36,15.625,0,14.0625,12.5,
82,2024-06-17,04:49:49.46317,5.75167,0,10.5,0,-12.5,-12.5,0.1953125,12.5,,1.3,,12.5,40,0,3476.5625,104.5,23.283897,-81.216103,0,1.745112,3.76627604166667,10,,0,9.6875,0.15625,15.2941176470588,23,0,62,,84,36,14.0625,0,14.0625,12.5,
83,2024-06-17,04:49:49.55694,5.84511,0,10.6,0,-12.5,-12.5,0.1953125,12.5,,1.3,,12.5,40,0,3460.9375,104.5,24.6144054,-79.8855946,0,1.784328,3.74934895833333,10,,0,9.6875,0.15625,16.078431372549,23,0,62,,84,36,15.625,0,14.0625,14.0625,
84,2024-06-17,04:49:49.65066,5.93921,0,10.6,0,-12.5,-12.5,0.1953125,14.0625,,1.3,,14.0625,40,0,3468.75,104.5,24.6144054,-79.8855946,0,1.784328,3.7578125,10,,0,9.84375,0,16.078431372549,23,0,62,,84,36,17.1875,0,18.75,17.1875,
85,2024-06-17,04:49:49.80692,6.09811,0,10.5,-1.171875,-12.5,-12.5,0.1953125,17.1875,,1.4,,18.75,40,0,3453.125,104.5,31.2669474,-73.2330526,0,1.941192,4.02864583333333,10,,0,9.84375,0,16.078431372549,23,0,62,,84,36,23.4375,0,23.4375,21.875,
86,2024-06-17,04:49:49.91629,6.20818,0,10.6,-1.171875,-12.5,-12.5,0.1953125,21.875,,1.4,,21.875,40,0,3476.5625,104.5,31.2669474,-73.2330526,0,1.941192,4.05598958333333,11.25,,-1.25,9.6875,0.15625,18.0392156862745,23,0,62,,84,36,25,0,21.875,21.875,
87,2024-06-17,04:49:50.01004,6.30951,0,10.5,-1.171875,-12.5,-12.5,0.1953125,21.875,,1.4,,21.875,40,0,3484.375,104.5,33.9279642,-70.5720358,0,2.000016,4.06510416666667,11.25,,-1.25,9.6875,0.15625,18.0392156862745,23,0,62,,84,36,25,0,23.4375,23.4375,
88,2024-06-17,04:49:50.15067,6.44444,0,10.5,-2.734375,0.1953125,-12.5,0.1953125,23.4375,,1.4,,23.4375,40,0,3421.875,104.5,33.9279642,-70.5720358,0,2.000016,3.9921875,11.875,,-1.875,9.84375,0.3125,18.0392156862745,23,0,62,,84,36,26.5625,0,25,23.4375,
89,2024-06-17,04:49:50.24442,6.54443,0,10.8,-2.734375,0.1953125,-12.5,0.1953125,23.4375,,1.4,,23.4375,40,0,3445.3125,104.5,35.9237268,-68.5762732,0,2.019624,4.01953125,11.875,,-1.875,9.84375,0.3125,18.8235294117647,23,0,62,,84,36,26.5625,0,26.5625,25,
90,2024-06-17,04:49:50.36941,6.65765,0,11.3,-2.734375,0.1953125,-12.5,0.1953125,25,,1.5,,25,40,0,3437.5,104.5,35.9237268,-68.5762732,0,2.019624,4.296875,13.125,,-3.125,10,0.15625,18.8235294117647,23,0,60,,84,36,28.125,0,25,25,
91,2024-06-17,04:49:50.44757,6.73565,0,11.3,-4.1015625,0.1953125,-12.5,0.1953125,25,,1.5,,25,40,0,3437.5,104.5,37.2542352,-67.2457648,0,1.980408,4.296875,13.125,,-3.125,10,0.15625,18.8235294117647,23,0,60,,84,36,28.125,0,25,25,
92,2024-06-17,04:49:50.51004,6.8038,0,11.9,-4.1015625,0.1953125,-12.5,0.1953125,25,,1.5,,25,40,0,3453.125,104.5,37.2542352,-67.2457648,0,1.980408,4.31640625,13.125,,-3.125,10.46875,-0.625,18.8235294117647,23,0,60,,84,36,28.125,0,25,25,
93,2024-06-17,04:49:50.58817,6.88478,0,11.9,-4.1015625,0.1953125,-12.5,0.1953125,25,,1.5,,25,40,0,3429.6875,104.5,37.9194894,-66.5805106,0,2.019624,4.287109375,13.125,,-3.125,10.46875,-0.625,18.8235294117647,23,0,60,,84,36,28.125,0,25,25,
94,2024-06-17,04:49:50.68192,6.96699,0,12.4,-5.2734375,0.1953125,-12.5,0.1953125,25,,1.5,,25,40,0,3437.5,104.5,37.9194894,-66.5805106,0,2.019624,4.296875,13.125,,-3.125,10.9375,-2.03125,18.8235294117647,23,0,60,,84,36,28.125,0,26.5625,25,
95,2024-06-17,04:49:50.69754,6.99041,0,12.4,-5.2734375,0.1953125,-12.5,0.1953125,25,,1.5,,25,40,0,3437.5,104.5,37.9194894,-66.5805106,0,2.019624,4.296875,13.125,,-3.125,10.9375,-2.03125,18.8235294117647,23,0,60,,84,36,28.125,0,25,25,
96,2024-06-17,04:49:50.72879,7.02885,0,13,-5.2734375,0.1953125,-12.5,0.1953125,25,,1.5,,25,40,0,3437.5,104.5,37.9194894,-66.5805106,0,2.019624,4.296875,13.125,,-3.125,11.25,-2.1875,18.8235294117647,23,0,60,,84,36,28.125,0,26.5625,25,
97,2024-06-17,04:49:50.79129,7.08317,0,13,-5.859375,0.1953125,-12.5,0.1953125,25,,1.5,,25,40,0,3437.5,104.5,37.9194894,-66.5805106,0,2.078448,4.296875,13.125,,-3.125,11.25,-2.1875,18.8235294117647,23,0,60,,84,36,28.125,0,25,26.5625,
98,2024-06-17,04:49:50.85379,7.14397,0,13,-5.859375,0.1953125,-12.5,0.1953125,26.5625,,1.5,,26.5625,40,0,3437.5,104.5,37.9194894,-66.5805106,0,2.078448,4.296875,13.125,,-3.125,11.40625,-2.1875,18.8235294117647,23,0,60,,84,36,28.125,0,26.5625,26.5625,
99,2024-06-17,04:49:50.88504,7.17433,0,13.4,-5.859375,0.1953125,-12.5,0.1953125,26.5625,,1.5,,26.5625,40,0,3437.5,104.5,37.9194894,-66.5805106,0,2.078448,4.296875,13.125,,-3.125,11.40625,-2.1875,18.8235294117647,23,0,60,,83,36,28.125,0,26.5625,26.5625,
100,2024-06-17,04:49:50.96318,7.25639,0,13.4,-6.4453125,0.1953125,-12.5,0.1953125,26.5625,,1.5,,26.5625,40,0,3429.6875,104.5,37.9194894,-66.5805106,0,2.078448,4.287109375,13.75,,-3.75,11.875,-2.5,18.8235294117647,23,0,60,,83,36,29.6875,0,26.5625,26.5625,
101,2024-06-17,04:49:51.02566,7.32419,0,13.4,-6.4453125,0.1953125,-12.5,0.1953125,26.5625,,1.5,,26.5625,40,0,3429.6875,104.5,39.2499978,-65.2500022,0,2.117664,4.287109375,13.75,,-3.75,11.875,-2.5,19.2156862745098,23,0,60,,83,36,29.6875,0,26.5625,26.5625,
102,2024-06-17,04:49:51.07254,7.35903,0,13.7,-6.4453125,0.1953125,-12.5,0.1953125,26.5625,,1.5,,26.5625,40,0,3429.6875,104.5,39.2499978,-65.2500022,0,2.117664,4.287109375,13.75,,-3.75,12.1875,-2.8125,19.2156862745098,23,0,60,,83,36,29.6875,0,25,26.5625,